Total_Precipitation_Accumulation
0.05 0.10 0.16 0.19 0.15 0.13 0.10 0.10 0.12 0.14 0.23 0.29 0.40 0.39 0.31 0.31 0.34 0.28 0.29 0.26 0.24 0.27 0.20 0.18 0.18 0.20 0.21 0.23 0.27 0.29 0.34 0.42 0.47 0.56 0.63 0.69 0.76 0.80 0.87 0.91 0.87 0.93 1.01 1.00
0.06 0.10 0.12 0.13 0.16 0.12 0.08 0.07 0.08 0.11 0.20 0.30 0.35 0.40 0.38 0.31 0.29 0.34 0.38 0.31 0.31 0.33 0.29 0.25 0.23 0.22 0.21 0.25 0.34 0.41 0.49 0.52 0.53 0.59 0.67 0.67 0.72 0.76 0.87 0.92 0.97 1.06 1.13 1.14
0.15 0.15 0.15 0.16 0.15 0.11 0.09 0.10 0.11 0.12 0.18 0.27 0.37 0.42 0.45 0.44 0.37 0.38 0.49 0.47 0.54 0.60 0.48 0.36 0.31 0.30 0.29 0.34 0.41 0.48 0.57 0.69 0.72 0.74 0.78 0.81 0.85 0.88 0.93 1.07 1.14 1.14 1.13 1.15
0.21 0.24 0.28 0.18 0.14 0.13 0.11 0.13 0.14 0.18 0.25 0.31 0.43 0.49 0.54 0.61 0.59 0.52 0.48 0.50 0.58 0.62 0.62 0.56 0.51 0.47 0.48 0.52 0.57 0.67 0.79 0.89 0.98 1.03 1.09 1.15 1.21 1.17 1.20 1.27 1.34 1.32 1.27 1.28
0.32 0.38 0.32 0.24 0.21 0.20 0.21 0.25 0.27 0.36 0.49 0.55 0.58 0.68 0.78 0.71 0.61 0.58 0.57 0.56 0.66 0.65 0.63 0.62 0.71 0.71 0.67 0.69 0.73 0.87 1.02 1.13 1.19 1.25 1.34 1.39 1.37 1.43 1.53 1.63 1.65 1.65 1.60 1.62
0.39 0.44 0.45 0.40 0.36 0.35 0.42 0.68 0.58 0.63 0.65 0.60 0.61 0.81 0.79 0.61 0.55 0.55 0.56 0.62 0.69 0.73 0.71 0.75 0.89 0.89 0.88 0.92 0.98 1.01 1.03 1.13 1.30 1.48 1.58 1.57 1.58 1.70 1.88 2.03 2.00 1.98 1.99 1.99
0.46 0.48 0.44 0.44 0.42 0.49 0.81 1.05 0.89 0.83 0.78 0.73 0.80 0.83 0.80 0.66 0.54 0.52 0.52 0.57 0.64 0.69 0.74 0.76 0.87 0.96 1.07 1.19 1.21 1.21 1.25 1.32 1.42 1.58 1.73 1.75 1.81 1.86 1.98 2.10 2.11 2.07 1.99 1.92
0.69 0.77 0.75 0.51 0.55 0.81 1.00 0.85 0.89 1.00 1.03 1.01 0.94 0.82 0.71 0.62 0.56 0.49 0.46 0.46 0.53 0.65 0.73 0.77 0.89 1.09 1.21 1.32 1.39 1.45 1.52 1.66 1.68 1.74 1.74 1.70 1.81 1.91 2.00 2.10 2.07 2.02 2.04 1.92
0.88 0.95 0.84 0.67 0.73 0.72 0.70 0.80 0.87 0.93 1.06 1.06 0.97 0.98 0.84 0.74 0.69 0.58 0.51 0.49 0.53 0.61 0.71 0.77 0.85 1.00 1.25 1.31 1.35 1.42 1.52 1.61 1.70 1.73 1.76 1.76 1.82 1.90 2.03 2.07 2.04 1.96 1.98 1.99
0.99 0.99 0.89 0.82 0.81 0.75 0.68 0.72 0.77 0.86 0.92 0.94 0.91 0.99 0.94 0.78 0.64 0.57 0.52 0.47 0.50 0.59 0.69 0.74 0.70 0.76 0.89 0.99 1.06 1.13 1.22 1.30 1.35 1.44 1.53 1.68 1.85 1.87 1.92 1.99 2.05 2.06 2.02 1.97
1.11 1.19 1.20 1.10 1.00 0.94 0.84 0.83 0.88 0.91 0.91 0.91 0.78 0.79 0.81 0.70 0.57 0.49 0.44 0.39 0.43 0.54 0.57 0.59 0.64 0.63 0.66 0.73 0.91 1.03 1.05 1.09 1.17 1.29 1.40 1.55 1.72 1.80 1.74 1.77 1.90 1.89 1.81 1.73
1.08 1.11 1.27 1.30 1.14 1.02 0.92 0.94 0.97 0.95 0.88 0.81 0.70 0.63 0.55 0.47 0.40 0.39 0.36 0.38 0.42 0.48 0.49 0.49 0.55 0.57 0.58 0.68 0.86 1.00 1.03 1.02 1.05 1.08 1.20 1.34 1.47 1.54 1.46 1.30 1.31 1.26 1.16 1.06
0.88 0.96 1.05 1.17 1.12 1.06 1.06 1.03 0.95 0.88 0.78 0.72 0.62 0.52 0.43 0.39 0.35 0.34 0.38 0.43 0.48 0.51 0.52 0.52 0.53 0.54 0.58 0.68 0.84 1.02 1.01 0.95 0.96 0.98 1.05 1.11 1.19 1.29 1.32 1.18 0.98 0.88 0.77 0.65
0.89 0.99 1.13 1.24 1.14 1.02 1.05 0.95 0.84 0.85 0.80 0.71 0.62 0.53 0.44 0.41 0.39 0.40 0.45 0.51 0.54 0.53 0.51 0.53 0.54 0.52 0.54 0.64 0.79 1.07 1.16 1.08 0.99 0.96 0.99 1.01 1.05 1.12 1.20 1.24 1.13 0.93 0.70 0.51
0.88 0.93 0.99 1.00 0.98 0.94 0.95 0.95 0.85 0.76 0.68 0.66 0.63 0.53 0.47 0.44 0.42 0.43 0.48 0.55 0.61 0.59 0.54 0.51 0.51 0.50 0.52 0.58 0.68 0.84 1.05 1.07 0.99 0.94 0.95 0.99 1.01 1.06 1.13 1.16 1.21 1.15 0.92 0.64
0.89 0.90 0.89 0.87 0.88 0.83 0.79 0.87 0.88 0.74 0.60 0.60 0.62 0.53 0.49 0.48 0.46 0.45 0.49 0.62 0.80 0.82 0.71 0.64 0.59 0.54 0.53 0.59 0.63 0.68 0.79 0.77 0.72 0.76 0.81 0.88 0.93 0.96 1.00 1.08 1.13 1.14 1.02 0.77
0.91 0.89 0.88 0.87 0.83 0.75 0.70 0.75 0.75 0.66 0.52 0.50 0.59 0.59 0.55 0.58 0.59 0.61 0.66 0.71 0.80 0.82 0.76 0.74 0.66 0.55 0.50 0.54 0.60 0.60 0.65 0.60 0.49 0.58 0.71 0.77 0.83 0.87 0.89 0.94 1.00 1.02 0.93 0.64
0.81 0.81 0.74 0.70 0.71 0.71 0.69 0.67 0.64 0.58 0.50 0.49 0.57 0.65 0.64 0.71 0.82 0.89 0.90 0.90 0.85 0.72 0.66 0.66 0.57 0.49 0.45 0.45 0.50 0.54 0.65 0.63 0.49 0.51 0.65 0.70 0.73 0.84 0.87 0.88 0.91 0.93 0.85 0.60
0.73 0.75 0.63 0.56 0.54 0.56 0.59 0.61 0.58 0.54 0.49 0.49 0.60 0.70 0.70 0.73 0.81 0.90 0.91 0.98 1.03 0.93 0.74 0.60 0.49 0.40 0.39 0.34 0.33 0.41 0.55 0.63 0.54 0.49 0.58 0.57 0.65 0.84 0.88 0.86 0.87 0.87 0.74 0.63
0.63 0.64 0.59 0.52 0.48 0.50 0.50 0.51 0.51 0.52 0.51 0.54 0.62 0.66 0.69 0.75 0.79 0.84 0.84 0.88 0.98 0.98 0.81 0.61 0.41 0.33 0.28 0.26 0.27 0.35 0.45 0.55 0.49 0.42 0.46 0.55 0.67 0.79 0.85 0.82 0.84 0.86 0.76 0.66
0.53 0.52 0.47 0.43 0.46 0.50 0.47 0.42 0.44 0.50 0.54 0.55 0.62 0.66 0.70 0.69 0.69 0.76 0.88 0.93 0.85 0.83 0.79 0.68 0.48 0.32 0.24 0.24 0.26 0.33 0.44 0.50 0.43 0.34 0.35 0.45 0.60 0.72 0.79 0.81 0.81 0.80 0.71 0.65
0.45 0.43 0.38 0.35 0.41 0.48 0.46 0.41 0.39 0.40 0.44 0.52 0.56 0.60 0.67 0.64 0.63 0.62 0.65 0.77 0.80 0.85 0.78 0.70 0.57 0.41 0.28 0.22 0.22 0.28 0.38 0.45 0.41 0.32 0.30 0.38 0.52 0.63 0.71 0.75 0.78 0.76 0.72 0.70
0.44 0.39 0.35 0.35 0.34 0.36 0.37 0.36 0.33 0.33 0.43 0.56 0.60 0.62 0.66 0.60 0.62 0.71 0.67 0.55 0.59 0.72 0.65 0.58 0.56 0.45 0.31 0.24 0.22 0.28 0.39 0.47 0.46 0.36 0.31 0.37 0.45 0.50 0.57 0.61 0.64 0.68 0.72 0.69
0.48 0.40 0.37 0.36 0.32 0.31 0.34 0.32 0.27 0.29 0.41 0.52 0.50 0.52 0.56 0.56 0.56 0.55 0.54 0.52 0.55 0.61 0.54 0.50 0.47 0.42 0.38 0.34 0.34 0.37 0.42 0.46 0.43 0.33 0.30 0.34 0.38 0.41 0.49 0.58 0.65 0.72 0.68 0.61
0.42 0.38 0.35 0.34 0.33 0.31 0.31 0.28 0.25 0.26 0.38 0.51 0.45 0.43 0.43 0.45 0.53 0.54 0.51 0.48 0.51 0.53 0.50 0.49 0.44 0.40 0.39 0.46 0.52 0.50 0.46 0.43 0.39 0.33 0.31 0.32 0.35 0.39 0.47 0.60 0.69 0.70 0.63 0.61
0.42 0.40 0.37 0.34 0.30 0.27 0.25 0.25 0.25 0.26 0.40 0.63 0.58 0.48 0.43 0.40 0.42 0.48 0.54 0.53 0.52 0.55 0.52 0.48 0.42 0.41 0.42 0.51 0.57 0.53 0.45 0.42 0.40 0.37 0.35 0.36 0.41 0.47 0.55 0.64 0.65 0.57 0.51 0.48
0.39 0.36 0.32 0.31 0.29 0.26 0.25 0.27 0.29 0.32 0.44 0.67 0.70 0.52 0.44 0.43 0.45 0.50 0.57 0.59 0.55 0.53 0.50 0.44 0.39 0.37 0.38 0.43 0.45 0.44 0.42 0.42 0.43 0.42 0.39 0.40 0.41 0.46 0.49 0.54 0.53 0.46 0.42 0.40